EW7285 Weather Reports


Display with metric or nautical units.
time (UTC)temp
F
wind
direction
speed
MPH
gust
MPH
rain 1hr
in
rain 24hr
in
rain mn
in
humidity
%
barometer
mb
20260905173011 56 312 0.0 0.0 0.00 0.09 0.01 79 1000.6
20260905171510 57 312 0.0 0.0 0.00 0.09 0.01 76 1000.4
20260905170009 59 312 0.0 0.0 0.00 0.09 0.01 74 1000.1
20260905164516 59 312 0.0 0.0 0.00 0.09 0.01 70 1000.0
20260905163005 60 312 0.0 0.0 0.00 0.09 0.01 70 999.9
20260905161503 61 312 0.0 0.0 0.00 0.09 0.01 71 999.7
20260905160009 60 312 0.0 0.0 0.00 0.09 0.01 69 999.7
20260905154501 61 312 2.0 6.0 0.00 0.09 0.01 64 999.6
20260905153100 61 337 5.0 10.0 0.00 0.09 0.01 62 999.4
20260905151556 62 300 3.0 5.0 0.00 0.09 0.01 62 999.3
20260905144554 61 27 3.0 10.0 0.00 0.09 0.01 68 999.1
20260905143052 61 336 8.0 14.0 0.00 0.09 0.01 65 998.9
20260905141549 61 329 6.0 10.0 0.00 0.09 0.01 62 998.7
20260905140048 61 340 4.0 11.0 0.00 0.09 0.01 64 998.7
20260905134548 61 311 7.0 14.0 0.00 0.09 0.01 63 998.6
20260905133044 62 346 7.0 13.0 0.00 0.09 0.01 66 998.4
20260905131541 62 308 5.0 13.0 0.00 0.09 0.01 62 998.3
20260905130039 61 325 5.0 16.0 0.00 0.09 0.01 64 998.2
20260905124537 62 342 8.0 18.0 0.00 0.09 0.01 64 998.2
20260905123032 60 327 12.0 15.0 0.00 0.09 0.01 68 998.1
20260905121529 61 327 8.0 14.0 0.00 0.09 0.01 76 998.0
20260905120027 60 284 7.0 10.0 0.00 0.09 0.01 74 998.0
20260905114525 60 303 7.0 13.0 0.00 0.09 0.01 74 997.8
20260905113022 59 304 8.0 12.0 0.00 0.09 0.01 75 997.7
20260905111521 59 295 7.0 11.0 0.00 0.09 0.01 75 997.6
20260905110020 60 322 6.0 12.0 0.00 0.09 0.01 72 997.4
20260905104518 59 311 6.0 11.0 0.00 0.09 0.01 73 997.2
20260905103018 59 263 9.0 15.0 0.00 0.09 0.01 72 996.9
20260905101513 59 284 9.0 15.0 0.00 0.09 0.01 74 996.8
20260905100011 59 273 10.0 14.0 0.00 0.09 0.01 76 996.7
20260905094509 59 271 5.0 12.0 0.00 0.09 0.01 76 996.6
20260905093005 59 279 7.0 13.0 0.00 0.09 0.01 74 996.5
20260905091501 59 300 7.0 11.0 0.00 0.09 0.01 75 996.4
20260905090059 59 239 6.0 10.0 0.01 0.09 0.01 80 996.3
20260905084557 58 265 5.0 9.0 0.01 0.09 0.01 81 996.2
20260905083055 58 322 3.0 8.0 0.01 0.09 0.01 78 996.1
20260905081554 58 273 6.0 12.0 0.01 0.09 0.01 79 995.9
20260905080050 58 355 5.0 11.0 0.00 0.08 0.00 81 995.9
20260905074547 57 304 8.0 11.0 0.00 0.08 0.00 84 995.7
20260905073043 55 275 6.0 10.0 0.00 0.08 0.00 87 995.6
20260905071540 55 290 6.0 9.0 0.00 0.08 0.00 89 995.5
20260905070038 54 279 4.0 6.0 0.00 0.08 0.00 90 995.4
20260905064533 53 275 3.0 6.0 0.00 0.08 0.00 91 995.3
20260905063029 52 305 2.0 5.0 0.00 0.08 0.00 92 995.1
20260905061525 52 276 4.0 6.0 0.00 0.08 0.00 92 995.1
20260905060022 51 303 2.0 3.0 0.00 0.08 0.00 92 994.8
20260905054520 51 303 0.0 0.0 0.00 0.08 0.00 92 994.6
20260905053019 51 303 0.0 3.0 0.00 0.08 0.00 92 994.5
20260905051518 50 303 1.0 3.0 0.00 0.08 0.00 92 994.5
20260905050016 50 303 1.0 3.0 0.00 0.08 0.00 92 994.4
20260905044518 50 303 0.0 2.0 0.00 0.08 0.00 92 994.3
20260905043013 50 303 0.0 3.0 0.00 0.08 0.00 91 994.1
20260905041513 50 319 2.0 5.0 0.00 0.08 0.00 92 994.0
20260905040010 50 311 1.0 2.0 0.00 0.08 0.00 91 993.9
20260905034515 50 311 2.0 3.0 0.00 0.08 0.00 91 993.8
20260905033007 50 291 2.0 3.0 0.00 0.08 0.00 91 993.8
20260905031506 49 291 1.0 3.0 0.00 0.08 0.00 91 993.8
20260905030006 50 283 3.0 4.0 0.00 0.08 0.00 92 993.6
20260905024503 50 316 4.0 6.0 0.00 0.08 0.00 92 993.6
20260905023100 50 5 0.0 2.0 0.00 0.08 0.00 92 993.5
20260905021559 50 5 1.0 3.0 0.00 0.08 0.00 92 993.4
20260905020109 49 5 0.0 1.0 0.00 0.08 0.00 92 993.2
20260905014603 50 5 2.0 3.0 0.00 0.08 0.00 91 993.2
20260905013103 50 5 1.0 3.0 0.00 0.08 0.00 91 993.1
20260905011627 50 5 0.0 3.0 0.00 0.08 0.00 91 993.2
20260905010050 50 5 0.0 3.0 0.00 0.08 0.00 90 993.1
20260905004550 50 5 1.0 3.0 0.00 0.08 0.00 90 993.0
20260905003049 50 5 1.0 3.0 0.00 0.08 0.00 91 993.1
20260905001556 50 5 1.0 4.0 0.00 0.08 0.00 91 993.1
20260905000047 50 5 0.0 3.0 0.00 0.08 0.00 91 993.1
20260904234546 50 5 0.0 4.0 0.00 0.08 0.00 91 993.2
20260904233045 50 5 0.0 3.0 0.00 0.08 0.00 91 993.2
20260904231544 50 5 0.0 3.0 0.00 0.08 0.00 92 993.1
20260904230042 51 5 1.0 4.0 0.00 0.08 0.00 91 993.1
20260904224540 51 24 0.0 0.0 0.00 0.08 0.00 91 993.2
20260904223038 51 24 0.0 3.0 0.01 0.08 0.00 91 993.3
20260904221536 51 24 0.0 3.0 0.01 0.08 0.00 91 993.4
20260904220033 51 36 0.0 4.0 0.01 0.08 0.00 91 993.4
20260904214533 52 57 0.0 5.0 0.01 0.08 0.08 90 993.5
20260904213032 52 82 2.0 6.0 0.00 0.07 0.07 91 993.5
20260904211531 52 43 2.0 4.0 0.00 0.07 0.07 91 993.4
20260904210034 52 33 0.0 1.0 0.01 0.07 0.07 91 993.4
20260904204531 52 132 0.0 0.0 0.01 0.07 0.07 90 993.5
20260904203028 52 132 0.0 1.0 0.02 0.07 0.07 90 993.6
20260904201527 53 132 0.0 3.0 0.03 0.07 0.07 90 993.6
20260904200028 53 89 1.0 4.0 0.05 0.06 0.06 90 993.7
20260904194525 53 126 1.0 3.0 0.06 0.06 0.06 90 993.7
20260904193026 54 126 0.0 2.0 0.05 0.06 0.06 89 993.8
20260904191523 54 126 1.0 4.0 0.02 0.03 0.03 88 994.0
20260904190021 55 138 0.0 4.0 0.02 0.02 0.02 87 993.9
20260904184524 55 132 0.0 3.0 0.01 0.01 0.01 84 994.0
20260904183021 56 122 1.0 4.0 0.01 0.01 0.01 80 994.1
20260904181540 57 98 0.0 5.0 0.01 0.01 0.01 76 994.1
20260904180018 57 129 0.0 4.0 0.00 0.00 0.00 70 994.1
20260904174517 58 138 0.0 6.0 0.00 0.00 0.00 65 994.2